7 * 24
多渠道服务支持
PATHFINDER 1(探路者1号)是美国于2016年9月26日发射的人造卫星。作为美国空间探索领域的小型技术试验卫星,它承担着新型空间探测技术验证任务,旨在测试新型传感器、轨道控制等前沿航天技术。该卫星的发射延续了美国“探路者”系列探索传统,为后续深空探测和近地空间应用卫星研发积累了关键数据,推动了航天技术迭代发展,至今已在轨稳定运行近十年。
美国
(US)
| 数据来源 | 国际轨道数据 |
| 星历时间: | 2026-09-14T07:13:41+0800 8小时前 查看轨道信息 |
| 半长轴: | 7046.382km |
| 偏心率: | 0.0026979 |
| 轨道倾角: | 97.823° |
| 近地点辐角 | 284.137° |
| 升交点赤经 | 252.267° |
| 平近点角 | 75.684° |
| 近地点: | 649.234km |
| 远地点: | 687.256km |
| 周期: | 98.109分钟 |
| 每日圈数: | 14.67755 |